Dewpoint
19 18 23 25 24 21 20 19 15 10 11 15 32 36 45 45 45 50 53 54 57 57 58 61 64 66 68 71 73 74 72 75
16 22 24 23 25 21 20 24 23 17 19 10 19 29 35 39 42 50 55 54 55 58 59 60 61 63 67 69 72 73 73 74
16 23 21 21 23 26 25 20 21 21 18 24 23 22 31 35 40 43 49 52 54 57 59 60 61 62 64 67 70 71 72 73
13 18 19 18 17 17 25 29 23 22 20 22 23 20 26 34 38 39 43 49 53 54 57 60 61 62 63 64 65 69 71 73
13 12 16 18 20 25 22 22 29 22 22 26 26 26 27 29 32 40 42 45 50 52 55 59 61 63 62 63 63 65 70 70
9 15 16 17 19 22 23 23 23 24 27 28 30 30 31 33 34 37 43 46 46 51 55 59 62 66 66 63 63 63 65 67
14 14 13 14 18 22 27 30 32 29 28 32 32 33 34 35 37 39 40 42 46 48 58 65 65 68 68 65 66 65 67 67
19 14 12 12 11 14 21 24 27 29 30 33 35 40 38 35 40 40 42 43 44 50 54 57 61 67 69 69 68 67 69 68
20 14 13 10 8 7 11 16 20 24 31 34 35 38 42 42 44 47 50 50 52 53 52 54 57 63 66 70 69 70 71 71
29 22 14 12 8 9 11 13 21 24 28 31 34 41 44 54 54 55 55 56 57 57 57 58 55 56 62 66 72 71 72 73
28 23 19 11 23 36 37 32 30 25 27 28 31 34 41 48 56 58 59 60 61 60 60 62 62 59 59 64 71 71 72 73
29 23 19 17 35 36 39 31 33 40 29 29 33 34 39 55 57 58 60 62 64 64 64 64 65 64 62 59 67 71 72 73
30 27 20 34 35 34 34 36 43 42 42 41 41 48 51 51 53 56 59 63 65 68 66 67 67 66 67 63 65 70 72 73
32 29 25 40 34 31 40 41 40 45 44 44 46 46 46 49 51 53 57 57 61 68 67 67 67 67 70 70 68 73 73 74
29 30 39 42 42 44 43 42 42 46 44 45 45 44 45 47 51 52 55 56 59 65 70 70 68 66 70 71 74 74 75 75
37 37 40 41 42 43 43 42 45 48 46 45 46 46 45 48 51 53 55 56 59 62 66 70 71 73 72 72 75 76 76 76
37 39 40 41 43 43 43 46 48 49 47 46 46 47 48 49 52 55 57 57 58 59 61 62 65 67 69 72 75 72 75 74
34 39 39 40 42 44 44 47 48 48 48 48 48 49 49 51 53 57 57 57 57 57 58 59 60 61 64 67 73 74 73 72
39 41 42 42 43 44 44 47 47 47 48 48 49 50 50 52 56 56 56 56 57 57 57 59 59 60 61 64 67 74 74 73
Lifted_Index
4 4 4 3 3 3 1 -0 -1 -0 1 1 1 1 0 -1 -1 -2 -2 -3 -4 -4 -3 -3 -3 -3 -3 -4 -5 -5 -4 -4
3 3 3 3 2 2 1 -0 -0 -0 -0 0 1 1 1 -0 -1 -1 -2 -3 -4 -4 -4 -4 -3 -3 -3 -4 -4 -4 -4 -5
3 3 3 2 2 1 0 -0 -0 -0 -1 -0 0 1 1 1 0 -0 -2 -3 -4 -5 -5 -4 -4 -4 -4 -4 -4 -4 -4 -5
3 3 3 2 1 0 -1 -1 -0 -0 -0 -0 -0 0 1 2 1 1 -1 -3 -4 -5 -5 -5 -5 -4 -4 -4 -4 -4 -4 -5
3 3 3 2 1 -0 -1 -1 -0 -0 -0 -0 -0 -0 0 2 2 1 -0 -2 -4 -4 -5 -5 -5 -5 -5 -4 -4 -4 -4 -5
3 3 2 2 1 0 -1 -1 -1 -0 -0 -0 -0 -0 0 2 2 1 -0 -2 -3 -4 -5 -6 -6 -6 -6 -5 -5 -4 -4 -4
3 3 3 3 2 1 -0 -0 -0 -0 -0 -0 -0 -0 -0 1 2 1 0 -1 -2 -3 -5 -6 -6 -7 -7 -6 -6 -5 -5 -5
2 2 3 3 3 3 2 2 1 1 1 1 0 -0 -1 -0 0 1 0 -0 -1 -2 -3 -5 -6 -7 -7 -7 -7 -6 -6 -6
0 1 2 2 3 4 4 4 3 2 2 2 1 1 -1 -2 -1 -0 -0 -1 -1 -2 -3 -4 -5 -6 -7 -7 -7 -7 -7 -7
-0 -0 0 1 1 2 3 3 3 2 2 2 2 1 -0 -2 -2 -2 -2 -2 -2 -2 -3 -3 -4 -4 -5 -7 -8 -8 -8 -8
-0 -0 -0 -0 -0 0 2 2 1 1 2 2 2 1 -0 -2 -2 -2 -2 -3 -3 -3 -4 -4 -4 -4 -4 -6 -7 -8 -9 -9
-0 -0 -1 -1 -1 -0 1 1 -0 -0 1 1 0 0 -0 -1 -1 -1 -2 -3 -4 -4 -5 -5 -5 -5 -5 -5 -7 -8 -9 -9
-1 -1 -1 -1 -1 0 1 1 -0 -0 0 0 -0 -1 -0 0 -0 -1 -2 -3 -4 -5 -6 -6 -6 -6 -6 -6 -7 -8 -9 -9
-1 -1 -1 -1 -0 1 1 1 1 1 1 1 0 0 1 1 -0 -2 -3 -3 -5 -6 -7 -7 -6 -6 -7 -7 -8 -9 -9 -9
-0 -1 -1 -0 1 2 2 2 2 2 2 2 2 2 2 1 -1 -3 -4 -5 -5 -6 -7 -7 -6 -6 -7 -7 -8 -9 -10 -10
1 1 1 2 2 3 3 3 3 3 3 3 3 4 3 1 -1 -3 -4 -5 -5 -6 -6 -6 -6 -6 -7 -7 -8 -9 -10 -10
2 3 3 3 4 4 4 4 4 4 4 4 4 5 5 3 1 -1 -2 -3 -4 -5 -5 -5 -5 -5 -6 -7 -7 -8 -9 -9
4 4 5 5 5 5 4 4 4 4 4 4 5 6 6 5 3 2 1 1 -1 -2 -3 -4 -4 -4 -5 -6 -6 -8 -8 -9
5 5 5 5 6 5 5 5 5 5 5 5 5 6 6 6 5 4 4 3 2 -0 -2 -2 -3 -4 -4 -5 -6 -7 -8 -9